Volver al catálogo

STARLINK-3145

ActivoComunicacionesVLEO
NORAD 49455·PAYLOAD·🇺🇸 United States

Lanzado Nov 13, 2021 desde Cape Canaveral Space Force Station

Loading…

Próximos Pases (próximas 24 horas)

TLE

ActualizadoSource: CelesTrak SupGP

Época: Sep 14, 2026, 14:20 UTC

1 49455C 21104AZ  26257.59770833  .00021918  00000+0  64762-3 0  2574
2 49455  53.1581  78.9619 0000888 102.6121 142.4202 15.34377929    15

Sigue STARLINK-3145 en tiempo real con AllMySat

Download on the App Store